TimeEST,TemperatureF,Dew PointF,Humidity,Sea Level PressureIn,VisibilityMPH,Wind Direction,Wind SpeedMPH,Gust SpeedMPH,PrecipitationIn,Events,Conditions,WindDirDegrees,DateUTC
12:14 AM,1.4,-4.0,78,29.89,10.0,Calm,Calm,-,N/A,,Clear,0,2013-02-05 05:14:00
12:34 AM,2.1,-2.9,79,29.89,10.0,Calm,Calm,-,N/A,,Clear,0,2013-02-05 05:34:00
12:54 AM,1.2,-4.0,79,29.89,10.0,Calm,Calm,-,N/A,,Clear,0,2013-02-05 05:54:00
1:14 AM,0.5,-4.7,79,29.88,10.0,Calm,Calm,-,N/A,,Clear,0,2013-02-05 06:14:00
1:34 AM,0.1,-4.9,79,29.88,10.0,Calm,Calm,-,N/A,,Clear,0,2013-02-05 06:34:00
1:54 AM,-0.6,-5.8,79,29.88,10.0,Calm,Calm,-,N/A,,Clear,0,2013-02-05 06:54:00
2:14 AM,-1.3,-6.7,78,29.88,10.0,Calm,Calm,-,N/A,,Clear,0,2013-02-05 07:14:00
2:34 AM,-2.7,-8.1,78,29.88,10.0,Calm,Calm,-,N/A,,Clear,0,2013-02-05 07:34:00
2:54 AM,-4.0,-9.4,78,29.88,10.0,Calm,Calm,-,N/A,,Clear,0,2013-02-05 07:54:00
3:14 AM,-3.3,-8.5,78,29.87,10.0,Calm,Calm,-,N/A,,Clear,0,2013-02-05 08:14:00
3:34 AM,-3.8,-9.6,76,29.87,10.0,Calm,Calm,-,N/A,,Clear,0,2013-02-05 08:34:00
3:54 AM,-5.3,-11.2,76,29.86,10.0,Calm,Calm,-,N/A,,Clear,0,2013-02-05 08:54:00
4:14 AM,-4.4,-9.9,77,29.86,10.0,Calm,Calm,-,N/A,,Clear,0,2013-02-05 09:14:00
4:34 AM,-4.0,-9.4,78,29.84,10.0,Calm,Calm,-,N/A,,Clear,0,2013-02-05 09:34:00
4:54 AM,-5.1,-10.8,76,29.84,10.0,Calm,Calm,-,N/A,,Clear,0,2013-02-05 09:54:00
5:14 AM,-4.0,-9.6,77,29.85,10.0,Calm,Calm,-,N/A,,Scattered Clouds,0,2013-02-05 10:14:00
5:34 AM,-2.4,-8.0,77,29.85,10.0,Calm,Calm,-,N/A,,Mostly Cloudy,0,2013-02-05 10:34:00
5:54 AM,-1.3,-6.7,78,29.84,10.0,Calm,Calm,-,N/A,,Overcast,0,2013-02-05 10:54:00
6:14 AM,-0.2,-5.4,79,29.83,10.0,Calm,Calm,-,N/A,,Overcast,0,2013-02-05 11:14:00
6:34 AM,0.9,-4.0,80,29.84,10.0,Calm,Calm,-,N/A,,Overcast,0,2013-02-05 11:34:00
6:54 AM,2.3,-2.7,79,29.82,10.0,Calm,Calm,-,N/A,,Overcast,0,2013-02-05 11:54:00
7:14 AM,4.6,-0.4,80,29.83,10.0,Calm,Calm,-,N/A,,Overcast,0,2013-02-05 12:14:00
7:34 AM,5.4,0.3,80,29.83,10.0,Calm,Calm,-,N/A,,Overcast,0,2013-02-05 12:34:00
7:54 AM,7.3,2.7,81,29.83,10.0,Calm,Calm,-,N/A,,Overcast,0,2013-02-05 12:54:00
8:14 AM,9.9,4.5,79,29.82,10.0,SSE,5.8,-,N/A,,Overcast,160,2013-02-05 13:14:00
8:34 AM,10.4,4.8,78,29.81,10.0,Calm,Calm,-,N/A,,Overcast,0,2013-02-05 13:34:00
8:54 AM,10.8,5.0,78,29.80,10.0,SSE,4.6,-,N/A,,Overcast,150,2013-02-05 13:54:00
9:14 AM,11.3,5.9,79,29.80,10.0,South,4.6,-,N/A,,Overcast,170,2013-02-05 14:14:00
9:34 AM,12.4,6.4,77,29.79,10.0,South,5.8,-,N/A,,Overcast,180,2013-02-05 14:34:00
9:54 AM,14.2,7.9,76,29.78,10.0,South,6.9,-,N/A,,Overcast,170,2013-02-05 14:54:00
10:14 AM,15.8,8.8,74,29.77,10.0,South,8.1,-,N/A,,Overcast,170,2013-02-05 15:14:00
10:34 AM,16.7,9.3,73,29.77,10.0,South,8.1,-,N/A,,Overcast,180,2013-02-05 15:34:00
10:54 AM,17.8,10.0,72,29.76,10.0,South,8.1,-,N/A,,Overcast,180,2013-02-05 15:54:00
11:14 AM,18.7,10.8,71,29.75,10.0,South,9.2,-,N/A,,Overcast,180,2013-02-05 16:14:00
11:34 AM,19.8,11.7,71,29.75,10.0,South,8.1,-,N/A,,Overcast,190,2013-02-05 16:34:00
11:54 AM,20.8,12.9,71,29.75,10.0,South,6.9,-,N/A,,Overcast,180,2013-02-05 16:54:00
12:14 PM,22.1,14.4,72,29.73,10.0,South,6.9,-,N/A,,Overcast,180,2013-02-05 17:14:00
12:34 PM,23.0,15.6,73,29.73,10.0,South,8.1,-,N/A,,Overcast,190,2013-02-05 17:34:00
12:54 PM,23.5,16.7,75,29.71,3.0,South,6.9,-,N/A,Snow,Light Snow,190,2013-02-05 17:54:00
1:14 PM,24.3,18.1,77,29.70,2.0,SSW,5.8,-,N/A,Snow,Light Snow,200,2013-02-05 18:14:00
1:34 PM,24.8,18.9,78,29.70,2.5,South,5.8,-,N/A,Snow,Light Snow,190,2013-02-05 18:34:00
1:54 PM,26.2,20.1,78,29.70,3.0,South,8.1,-,N/A,Snow,Light Snow,190,2013-02-05 18:54:00
2:14 PM,26.8,20.8,78,29.69,3.0,SSW,5.8,-,N/A,Snow,Light Snow,200,2013-02-05 19:14:00
2:34 PM,27.9,21.2,76,29.69,7.0,SW,9.2,17.3,N/A,,Overcast,230,2013-02-05 19:34:00
2:54 PM,28.0,21.7,77,29.69,7.0,SW,4.6,-,N/A,,Overcast,230,2013-02-05 19:54:00
3:14 PM,28.0,22.1,78,29.69,7.0,SW,6.9,-,N/A,,Overcast,230,2013-02-05 20:14:00
3:34 PM,28.4,22.1,77,29.70,7.0,West,10.4,-,N/A,,Overcast,270,2013-02-05 20:34:00
3:54 PM,28.4,21.9,77,29.71,7.0,West,10.4,17.3,N/A,,Overcast,260,2013-02-05 20:54:00
4:14 PM,28.0,21.6,77,29.72,5.0,West,11.5,18.4,N/A,,Haze,280,2013-02-05 21:14:00
4:34 PM,27.5,21.7,79,29.73,4.0,WNW,8.1,-,N/A,,Haze,300,2013-02-05 21:34:00
4:54 PM,27.0,21.2,79,29.74,5.0,WNW,15.0,-,N/A,,Haze,300,2013-02-05 21:54:00
5:14 PM,26.6,21.2,80,29.74,7.0,West,11.5,21.9,N/A,,Overcast,280,2013-02-05 22:14:00
5:34 PM,26.6,21.0,79,29.75,7.0,WNW,13.8,-,N/A,,Overcast,300,2013-02-05 22:34:00
5:54 PM,26.1,20.3,79,29.76,5.0,NW,11.5,16.1,N/A,,Haze,310,2013-02-05 22:54:00
6:14 PM,25.9,20.1,79,29.77,7.0,NW,10.4,-,N/A,,Overcast,310,2013-02-05 23:14:00
6:34 PM,25.7,19.9,79,29.78,7.0,WNW,8.1,-,N/A,,Overcast,300,2013-02-05 23:34:00
6:54 PM,25.7,19.8,78,29.79,7.0,NW,9.2,17.3,N/A,,Overcast,320,2013-02-05 23:54:00
7:14 PM,25.3,19.2,78,29.80,10.0,NW,13.8,18.4,N/A,,Overcast,320,2013-02-06 00:14:00
7:34 PM,25.2,18.5,76,29.82,10.0,NW,9.2,-,N/A,,Overcast,320,2013-02-06 00:34:00
7:54 PM,24.8,17.6,74,29.84,10.0,NNW,12.7,18.4,N/A,Snow,Light Snow,340,2013-02-06 00:54:00
8:14 PM,24.6,17.1,73,29.85,7.0,NNW,13.8,-,N/A,Snow,Light Snow,330,2013-02-06 01:14:00
8:34 PM,24.1,16.0,71,29.87,10.0,NNW,10.4,-,N/A,Snow,Light Snow,330,2013-02-06 01:34:00
8:54 PM,23.2,13.8,67,29.88,10.0,NNW,10.4,-,N/A,,Overcast,340,2013-02-06 01:54:00
9:14 PM,23.0,13.5,67,29.89,10.0,North,10.4,16.1,N/A,Snow,Light Snow,360,2013-02-06 02:14:00
9:34 PM,22.8,13.1,66,29.90,10.0,North,6.9,-,N/A,Snow,Light Snow,360,2013-02-06 02:34:00
9:54 PM,22.6,13.5,68,29.91,10.0,NNW,5.8,-,N/A,,Overcast,340,2013-02-06 02:54:00
10:14 PM,22.6,14.0,69,29.93,10.0,NW,3.5,-,N/A,,Overcast,310,2013-02-06 03:14:00
10:34 PM,22.6,14.2,70,29.93,10.0,WNW,3.5,-,N/A,,Overcast,300,2013-02-06 03:34:00
10:54 PM,22.6,14.0,69,29.93,10.0,Calm,Calm,-,N/A,Snow,Light Snow,0,2013-02-06 03:54:00
11:14 PM,22.1,14.5,73,29.94,10.0,West,4.6,-,N/A,,Overcast,280,2013-02-06 04:14:00
11:34 PM,22.1,14.7,73,29.95,10.0,West,4.6,-,N/A,,Overcast,280,2013-02-06 04:34:00
11:54 PM,22.1,15.6,76,29.95,10.0,WNW,5.8,-,N/A,,Overcast,300,2013-02-06 04:54:00